This is the latest recevied weather packets stored in our database for station/object W0VI. If no packets are shown the sender has not sent any weather packets the latest 10 day(s).
| Time | Temp. | Humidity | Pressure | Rain* | Wind** | Luminosity | Snow |
|---|---|---|---|---|---|---|---|
| 1778101854 | 6.67° C | 51% | 1015.9 hPa | 0 mm | - | 205 W/m² | - |
| 1778101551 | 6.67° C | 49% | 1016 hPa | 0 mm | - | 216 W/m² | - |
| 1778101248 | 6.67° C | 49% | 1016.2 hPa | 0 mm | - | 266 W/m² | - |
| 1778100944 | 6.67° C | 50% | 1016.2 hPa | 0 mm | - | 241 W/m² | - |
| 1778100639 | 6.11° C | 50% | 1016.3 hPa | 0 mm | - | 262 W/m² | - |
| 1778100338 | 6.11° C | 49% | 1016.1 hPa | 0 mm | - | 218 W/m² | - |
| 1778100034 | 6.67° C | 51% | 1016.2 hPa | 0 mm | - | 213 W/m² | - |
| 1778099733 | 6.67° C | 50% | 1016.5 hPa | 0 mm | - | 246 W/m² | - |
| 1778099429 | 6.11° C | 50% | 1016.2 hPa | 0 mm | - | 235 W/m² | - |
| 1778099126 | 5.56° C | 51% | 1016.3 hPa | 0 mm | - | 192 W/m² | - |
| 1778098822 | 6.11° C | 51% | 1016.5 hPa | 0 mm | - | 230 W/m² | - |
| 1778098521 | 5.56° C | 51% | 1016.3 hPa | 0 mm | - | 199 W/m² | - |
| 1778098217 | 6.11° C | 50% | 1016.3 hPa | 0 mm | - | 215 W/m² | - |
| 1778097913 | 6.11° C | 51% | 1016.6 hPa | 0 mm | - | 252 W/m² | - |
| 1778097610 | 6.11° C | 50% | 1016.2 hPa | 0 mm | - | 470 W/m² | - |
| 1778097307 | 6.11° C | 50% | 1016.3 hPa | 0 mm | - | 220 W/m² | - |
| 1778097002 | 6.11° C | 51% | 1016.5 hPa | 0 mm | - | 283 W/m² | - |
| 1778096700 | 5.56° C | 51% | 1016.3 hPa | 0 mm | - | 271 W/m² | - |
| 1778096396 | 5.56° C | 51% | 1016.2 hPa | 0 mm | - | 251 W/m² | - |
| 1778096094 | 5.56° C | 51% | 1016.5 hPa | 0 mm | - | 260 W/m² | - |
| 1778095785 | 5.56° C | 51% | 1016.5 hPa | 0 mm | - | 255 W/m² | - |
| 1778095481 | 5.56° C | 51% | 1016.3 hPa | 0 mm | - | 255 W/m² | - |
| 1778095173 | 5.56° C | 52% | 1016.6 hPa | 0 mm | - | 257 W/m² | - |
| 1778094869 | 5.56° C | 52% | 1016.6 hPa | 0 mm | - | 241 W/m² | - |
| 1778094565 | 5.56° C | 52% | 1016.5 hPa | 0 mm | - | 245 W/m² | - |
* Rain latest hour (hover to see other rain measurements)
** Current wind speed in m/s (hover to see current wind gust speed)